Regional Weather Roundup
Issued by NWS Austin/San Antonio, TX

Home | Current Version | Previous Version | Text Only | Print | Product List | Glossary On
Versions: 1 2 3 4 5 6 7 8 9 10 11 12 13 14 15 16 17 18 19 20 21 22 23 24 25 26 27 28 29 30 31 32 33 34 35 36 37 38 39 40 41 42 43 44 45 46 47 48 49 50
000
ASUS44 KEWX 131902
RWREWX
SOUTH TEXAS REGIONAL WEATHER ROUNDUP
NATIONAL WEATHER SERVICE AUSTIN/SAN ANTONIO TX
200 PM CDT SUN OCT 13 2019

NOTE: "FAIR" INDICATED FEW OR NO CLOUDS BELOW 12,000 FEET WITH NO
SIGNIFICANT WEATHER AND/OR OBSTRUCTIONS TO VISIBILITY.

* - THESE STATIONS ARE NOT NWS OR FAA STATIONS...AND ARE NOT SUBJECT
    TO NWS AND FAA QUALITY CONTROL.

TXZ171-172-183>190-132000-
TEXAS HILL COUNTRY AND EDWARDS PLATEAU

CITY           SKY/WX    TMP DP  RH WIND       PRES   REMARKS
JUNCTION       MOSUNNY   75  42  30 S9        30.03F
*LLANO         MOSUNNY   75  43  31 SE5       30.05F
BURNET         SUNNY     73  44  35 SE8       30.03F
*HORSESHOE BAY PTSUNNY   79  46  31 W3        30.02F
*KERRVILLE     MOSUNNY   78  45  31 S12       30.02F
*FREDERICKSBRG MOSUNNY   75  47  36 SW10      30.02S
*ROCKSPRINGS   PTSUNNY   70  37  30 SW7G13    30.09F
*BOERNE        PTSUNNY   73  43  33 CALM      30.03F
*CASTROVILLE   CLOUDY    77  41  27 S6        30.02F
HONDO          CLOUDY    77  42  28 CALM      30.01F
*UVALDE        PTSUNNY   75  40  27 S5        30.03F
DEL RIO        SUNNY     73  38  27 SE7       30.00F
LAUGHLIN AFB   NOT AVBL
SPOFFORD       NOT AVBL
*EAGLE PASS    SUNNY     79  37  22 SW7       30.00F
CARRIZO SPRGS  CLOUDY    79  43  27 E3        29.99F
*FAITH RANCH   CLOUDY    79  46  31 VRB6      29.99F
$$

TXZ173-191>194-202-209-217>225-228-132000-
CENTRAL AND SOUTH CENTRAL TEXAS

CITY           SKY/WX    TMP DP  RH WIND       PRES   REMARKS
GEORGETOWN     PTSUNNY   73  48  41 VRB7      30.02F
AUSTIN/BERGSTM CLOUDY    77  45  32 S8        30.00F
AUSTIN/MABRY   MOSUNNY   76  43  30 CALM      30.02F
*AUSTIN/EXEC   CLOUDY    73  45  35 S8        30.02F
*LAGO VISTA    PTSUNNY   73  48  40 E5        30.02F
SAN MARCOS     PTSUNNY   74  43  32 S5        30.02F
NEW BRAUNFELS  CLOUDY    75  44  33 S9        30.01F
RANDOLPH AFB   CLOUDY    74  45  34 S6        30.01F
SEGUIN         CLOUDY    73  44  34 CALM      30.05F
KELLY FIELD    CLOUDY    76  46  33 CALM      30.00F
SAN ANTONIO    PTSUNNY   77  44  30 S8        30.02F
STINSON FIELD  CLOUDY    75  43  31 VRB3      30.00F
PLEASANTON     CLOUDY    77  49  36 S3        30.01F
*LA GRANGE     MOSUNNY   77  49  37 SE3       29.99F
*GIDDINGS      SUNNY     77  46  33 SE5       30.03F
*GONZALES      CLOUDY    77  54  44 S3        30.01F
$$

TXZ163>164-176>182-195>201-210>213-226-227-235-132000-
SOUTHEAST TEXAS

CITY           SKY/WX    TMP DP  RH WIND       PRES   REMARKS
COLLEGE STN    MOSUNNY   75  46  35 S3        30.02F
*BRYAN         MOSUNNY   74  47  38 CALM      30.03F
*CALDWELL      MOSUNNY   75  45  34 SE6       30.02F
*CROCKETT      PTSUNNY   72  46  40 SE3       30.07F
*BRENHAM       CLOUDY    75  43  31 CALM      30.02F
HUNTSVILLE     MOSUNNY   74  48  39 CALM      30.03F
CONROE         CLOUDY    73  52  47 CALM      30.03F
HOUSTON BUSH   MOSUNNY   79  57  46 E5        30.01F
HOUSTON HOBBY  PTSUNNY   80  58  46 VRB3      30.00F
*HOUSTON SW AP FAIR      79  64  59 CALM      30.01F
PEARLAND       FAIR      79  61  53 CALM      30.01F
HOUSTON HOOKS  PTSUNNY   77  55  46 VRB5      30.02F
ELLINGTON FLD  PTSUNNY   81  57  44 NE5       29.99F
SUGAR LAND     FAIR      80  62  54 NE6       30.01F
*HOUSTON EXEC  CLOUDY    79  61  53 CALM      30.02F
*CLEVELAND MUN CLOUDY    71  55  57 CALM      30.05F
*WHARTON       MOSUNNY   81  60  50 NE6       30.01F
*COLUMBUS      CLOUDY    79  48  34 NE5       30.02F
*EAGLE LAKE    CLOUDY    79  59  50 E5        30.01F
$$

TXZ214>216-236>238-132000-
THE UPPER TEXAS COAST

CITY           SKY/WX    TMP DP  RH WIND       PRES   REMARKS
*ORANGE        PTSUNNY   79  64  60 NW5       30.03F
PORT ARTHUR    CLOUDY    80  62  54 VRB6      30.00F
GALVESTON      FAIR      77  61  57 N10       30.01F
ANGLETON       FAIR      79  64  60 E8        29.99F
*BAY CITY      MOSUNNY   82  67  60 NE6       29.99F
PALACIOS       MOSUNNY   83  64  52 E9        29.97F
$$

TXZ229>234-239>247-132000-
TEXAS COASTAL BEND AND RIO GRANDE PLAINS

CITY           SKY/WX    TMP DP  RH WIND       PRES   REMARKS
VICTORIA       CLOUDY    80  59  48 VRB5      29.99F
*BEEVILLE      CLOUDY    83  60  44 CALM      29.98F
ROCKPORT       CLOUDY    80  64  58 E12       29.97F
*PORT ARANSAS  CLOUDY    76  65  68 N10       29.98F
*PORT LAVACA   CLOUDY    82  65  55 NE10      29.99F
*INGLESIDE     PTSUNNY   80  64  57 E13       29.97F
CORPUS CHRISTI CLOUDY    79  63  57 NE13      29.97F
CORPUS NAS     CLOUDY    76  67  73 NE17      29.96F
*ROBSTOWN      CLOUDY    79  59  50 NE10      29.98F
ALICE          CLOUDY    79  54  41 NE7       29.98F
KINGSVILLE NAS CLOUDY    78  60  53 NE9       29.98F
COTULLA        CLOUDY    78  47  33 VRB5      30.00F
LAREDO         CLOUDY    76  57  51 E5        29.98F
$$

TXZ248>255-132000-
DEEP SOUTH TEXAS

CITY           SKY/WX    TMP DP  RH WIND       PRES   REMARKS
BROWNSVILLE    FAIR      84  66  54 NW7G16    29.93F
PORT ISABEL    FAIR      84  69  60 NW13      29.93F
HARLINGEN      CLOUDY    80  59  48 NW16      29.94F
*HEBBRONVILLE  CLOUDY    71  54  54 CALM      30.01F
MCALLEN        CLOUDY    75  61  61 N12       29.97F
*WESLACO       CLOUDY    73  59  61 N10G18    29.96F
FALFURRIAS     CLOUDY    76  56  49 NE8       29.98F
EDINBURG       CLOUDY    67  60  76 N9        29.98F
*ZAPATA        CLOUDY    78  56  46 CALM      29.99F
$$

TXZ213>215-236>238-242>244-246-247-251-254-255-132000-
CMAN STATIONS

STATION/POSITION TIME  TEMP    WIND        PRES    WAVE
                       AIR SEA DIR/SP/G            HT/PER
                 (UTC) (F)     (DEG/KT/KT) (MB)    (FT/S)
SABINE PASS      1830   74 76   10/  6/  8 1018.0
SEA RIM ST PARK  1800   73      20/  7/ 10 1017.1
NORTH JETTY/GLS  1824   71 74   10/  9/ 10 1015.5
EAGLE POINT      1824   70 71   40/  8/  8 1016.0
MORGANS POINT    1830   79 79   CALM  /  1 1016.6
PORT O`CONNOR    1824   72 69   40/  9/ 11 1015.2
PORT ARANSAS     1800   72 78   10/ 16/ 17 1015.6
MALAQUITE BEACH  1824      79   10/ 18/ 21 1014.6
BAFFIN BAY       1824   71 72  350/ 17/ 19 1015.0
PORT ISABEL      1824   74 74  340/ 12/ 15 1013.9
$$



USA.gov is the U.S. government's official web portal to all federal, state and local government web resources and services.